Date,TemperatureHighF,TemperatureAvgF,TemperatureLowF,DewpointHighF,DewpointAvgF,DewpointLowF,HumidityHigh,HumidityAvg,HumidityLow,PressureMaxIn,PressureMinIn,WindSpeedMaxMPH,WindSpeedAvgMPH,GustSpeedMaxMPH,PrecipitationSumIn
2013-1-1,23,19,13,16,12,6,79,73,68,30.71,30.34,0,0,0,0.00
2013-1-2,28,22,12,20,16,6,79,75,66,30.71,29.98,0,0,0,0.09
2013-1-3,16,9,4,8,2,-3,75,71,68,30.28,29.67,0,0,0,0.00
2013-1-4,26,20,10,17,12,3,76,71,64,30.17,29.62,0,0,0,0.00
2013-1-5,32,27,24,23,20,17,85,73,65,30.17,30.01,2,0,2,0.00
2013-1-6,29,26,25,23,20,19,83,78,74,30.06,29.96,0,0,0,0.00
2013-1-7,35,29,25,30,24,20,86,82,81,29.97,29.06,0,0,0,0.09
2013-1-8,41,30,26,36,26,21,92,86,80,29.62,29.20,0,0,0,0.06
2013-1-9,43,38,31,36,31,27,85,76,68,29.45,28.76,0,0,0,0.05
2013-1-10,32,30,28,28,26,25,86,85,84,29.47,28.97,0,0,0,0.00
2013-1-11,35,24,5,26,16,-2,85,71,46,30.46,28.98,0,0,0,0.11
2013-1-12,24,11,4,11,2,-4,75,67,54,30.81,30.46,0,0,0,0.00
2013-1-13,21,8,-3,6,-1,-13,72,64,49,30.84,30.29,0,0,0,0.00
2013-1-14,23,18,12,15,11,4,76,72,68,30.35,29.94,0,0,0,0.00
2013-1-15,27,24,21,19,17,14,79,73,67,30.53,30.18,0,0,0,0.00
2013-1-16,33,24,12,22,17,6,79,73,62,30.61,30.21,0,0,0,0.01
2013-1-17,24,19,14,17,13,7,80,76,73,30.70,30.20,0,0,0,0.00
2013-1-18,31,20,6,21,13,-2,80,73,59,30.61,29.99,0,0,0,0.00
2013-1-19,28,13,4,16,4,-4,75,68,56,30.94,30.61,0,0,0,0.00
2013-1-20,28,12,4,16,3,-5,75,67,53,31.04,30.73,0,0,0,0.00
2013-1-21,26,12,5,16,4,-3,77,70,64,30.92,30.60,0,0,0,0.00
2013-1-22,18,14,10,12,7,3,76,73,71,30.83,30.05,0,0,0,0.00
2013-1-23,30,21,14,25,14,7,86,75,69,30.53,29.73,0,0,0,0.00
2013-1-24,30,26,23,22,20,17,80,75,68,30.26,29.92,0,0,0,0.00
2013-1-25,33,30,26,28,25,20,86,84,78,30.28,29.66,0,0,0,0.02
2013-1-26,37,32,30,31,28,25,87,83,74,30.17,29.98,0,0,0,0.21
2013-1-27,30,29,28,25,24,22,84,80,73,30.28,30.17,0,0,0,0.01
2013-1-28,33,30,29,26,24,21,83,79,72,30.25,29.85,0,0,0,0.27
2013-1-29,40,31,25,28,24,20,86,77,64,30.43,30.06,0,0,0,0.28
2013-1-30,36,32,30,30,28,26,87,83,75,30.49,30.04,0,0,0,0.05
2013-1-31,37,33,30,31,28,26,86,83,77,30.42,30.09,0,0,0,0.00
2013-2-1,37,33,32,32,28,27,85,82,77,30.72,30.20,0,0,0,0.01
2013-2-2,35,30,28,28,26,24,86,83,74,30.92,30.72,0,0,0,0.00
2013-2-3,33,30,27,28,26,24,87,84,79,30.75,30.62,0,0,0,0.00
2013-2-4,38,33,31,31,28,27,86,81,74,30.64,29.88,0,0,0,0.00
2013-2-5,42,34,29,33,29,25,87,81,70,30.30,29.65,0,0,0,0.00
2013-2-6,42,35,31,31,28,25,84,76,64,30.25,29.88,0,0,0,0.00
2013-2-7,39,33,30,35,29,26,87,84,78,30.30,28.91,0,0,0,0.02
2013-2-8,45,34,23,31,26,17,87,74,47,30.45,29.91,0,0,0,0.00
2013-2-9,38,27,19,28,21,14,86,78,63,30.71,30.38,0,0,0,0.00
2013-2-10,38,27,18,27,21,13,85,77,65,30.87,30.71,0,0,0,0.00
2013-2-11,35,32,29,25,24,23,80,74,68,30.77,30.11,0,0,0,0.00
2013-2-12,40,31,0,31,27,25,82,66,68,30.28,29.77,0,0,0,0.00
2013-2-13,48,35,22,33,27,16,86,72,55,30.31,29.84,0,0,0,0.00
2013-2-14,40,28,19,28,21,14,84,75,58,30.67,30.13,0,0,0,0.00
2013-2-15,47,31,20,32,23,15,84,72,55,30.81,30.25,0,0,0,0.00
2013-2-16,44,30,22,33,25,16,86,79,65,30.45,30.18,0,0,0,0.00
2013-2-17,44,32,24,33,23,15,88,73,32,30.46,30.25,0,0,0,0.00
2013-2-18,39,30,20,27,21,14,79,69,54,30.48,30.15,0,0,0,0.00
2013-2-19,36,32,29,32,27,23,85,82,78,30.16,29.44,0,0,0,0.14
2013-2-20,41,30,21,28,22,15,87,74,46,30.03,26.93,0,0,0,0.01
2013-2-21,34,27,19,27,21,13,85,79,74,30.14,29.68,0,0,0,0.02
2013-2-22,38,33,27,33,28,23,86,82,66,30.03,29.38,0,0,0,0.09
2013-2-23,47,34,25,26,22,18,80,64,38,30.30,29.59,0,0,0,0.00
2013-2-24,38,30,22,28,22,16,79,72,63,30.49,30.21,0,0,0,0.00
2013-2-25,41,35,27,33,28,23,84,76,68,30.36,29.56,0,0,0,0.15
2013-2-26,42,34,24,27,24,18,85,66,52,30.63,30.29,0,0,0,0.00
2013-2-27,46,39,29,28,25,23,80,59,44,30.33,29.76,0,0,0,0.01
2013-2-28,43,35,30,34,30,24,89,79,64,30.17,29.85,0,0,0,0.15
2013-3-1,52,43,35,43,38,30,91,82,72,30.17,29.84,0,0,0,0.01
2013-3-2,50,42,34,41,36,29,89,79,68,30.23,29.89,0,0,0,0.00
2013-3-3,48,41,35,36,19,10,80,44,25,30.17,29.88,0,0,0,0.00
2013-3-4,46,43,34,24,16,10,63,35,25,30.17,29.66,0,0,0,0.00
2013-3-5,46,41,32,28,20,14,76,46,28,30.03,29.66,0,0,4,0.00
2013-3-6,38,33,30,34,28,24,85,81,72,30.03,29.54,0,0,0,0.25
2013-3-7,48,36,27,36,30,23,87,80,64,30.20,29.91,0,0,0,0.09
2013-3-8,50,37,26,35,28,23,86,72,44,30.36,29.88,0,0,0,0.01
2013-3-9,52,36,26,33,25,21,86,68,33,30.82,30.36,3,0,4,0.00
2013-3-10,46,33,24,32,25,18,84,72,53,30.93,30.70,2,0,4,0.00
2013-3-11,52,36,24,35,22,15,88,62,24,30.82,30.18,4,0,6,0.01
2013-3-12,52,43,35,41,34,25,80,71,58,30.34,29.91,4,0,12,0.00
2013-3-13,56,49,42,41,39,34,81,67,56,30.20,29.99,0,0,0,0.00
2013-3-14,60,49,40,44,40,36,87,73,52,30.19,29.86,0,0,0,0.00
2013-3-15,59,44,32,40,34,28,86,69,43,30.31,30.05,3,0,4,0.00
2013-3-16,52,39,28,36,30,23,85,71,42,30.32,29.99,14,0,24,0.07
2013-3-17,48,38,26,32,22,12,84,55,25,30.39,30.00,13,1,17,0.01
2013-3-18,45,32,22,28,21,15,78,66,35,30.48,29.81,19,2,27,0.00
2013-3-19,50,33,20,26,19,14,83,60,23,30.51,30.01,8,1,17,0.00
2013-3-20,54,41,35,45,33,24,90,74,45,30.08,29.35,5,0,9,0.61
2013-3-21,45,37,29,28,19,10,68,50,26,30.11,29.75,14,2,17,0.00
2013-3-22,46,32,21,22,15,6,78,53,21,30.39,29.92,19,2,26,0.00
2013-3-23,45,30,17,21,15,9,75,55,28,30.73,30.36,13,2,17,0.00
2013-3-24,48,32,19,24,16,10,76,54,25,30.93,30.58,8,2,11,0.00
2013-3-25,53,34,19,25,16,11,73,51,23,30.74,29.95,11,2,13,0.04
2013-3-26,59,38,22,29,20,15,76,53,22,30.25,29.69,7,1,23,0.01
2013-3-27,60,42,26,37,29,21,86,63,32,30.20,29.81,9,2,11,0.00
2013-3-28,61,46,29,42,36,27,96,71,42,30.16,29.86,8,1,16,0.06
2013-3-29,62,44,29,43,34,27,96,73,33,30.34,29.99,13,2,31,0.00
2013-3-30,67,45,28,41,33,26,97,69,28,30.64,30.31,9,1,12,0.00
2013-3-31,71,48,28,41,33,27,97,64,21,30.52,30.13,8,1,9,0.00
2013-4-1,48,43,31,39,36,28,95,75,68,30.33,29.95,5,2,6,0.00
2013-4-2,48,48,48,38,38,38,68,68,68,29.96,29.96,2,2,3,0.00
2013-4-3,48,48,48,38,38,38,68,68,68,29.96,29.96,2,2,3,0.00
2013-4-4,48,48,48,38,38,38,68,68,68,29.96,29.96,2,2,3,0.00
2013-4-5,48,48,48,38,38,38,68,68,68,29.96,29.96,2,2,3,0.00
2013-4-6,48,48,48,38,38,38,68,68,68,29.96,29.96,2,2,3,0.00
2013-4-7,48,48,48,38,38,38,68,68,68,29.96,29.96,2,2,3,0.00
2013-4-8,50,46,41,40,36,31,85,70,54,30.20,29.87,11,2,15,0.77
2013-4-9,54,45,36,39,34,29,88,66,42,30.35,30.02,7,1,10,0.04
2013-4-10,59,47,36,48,40,36,96,79,61,30.10,27.81,19,2,25,0.13
2013-4-11,55,42,33,38,35,29,99,77,43,30.26,29.83,14,1,27,0.01
2013-4-12,52,40,28,38,32,25,90,76,47,30.17,29.64,17,3,25,0.08
2013-4-13,50,40,28,38,28,14,88,64,23,30.11,29.67,16,3,21,0.01
2013-4-14,47,35,25,35,28,20,88,75,49,30.33,30.07,14,3,20,0.00
2013-4-15,48,38,26,29,20,12,87,54,29,30.34,29.77,11,3,17,0.02
2013-4-16,52,38,26,23,15,8,68,41,22,30.41,30.02,21,4,29,0.04
2013-4-17,45,26,20,24,17,14,80,70,39,30.58,29.89,4,1,6,0.00
2013-4-18,61,50,28,42,32,22,86,52,32,30.16,29.80,11,4,16,0.02
2013-4-19,59,48,43,47,44,39,98,86,55,29.85,29.49,10,2,33,0.37
2013-4-20,63,49,39,45,39,30,99,74,32,30.62,29.76,13,2,17,0.02
2013-4-21,54,46,40,37,31,20,79,57,27,30.30,29.98,18,3,23,0.00
2013-4-22,58,42,26,32,24,14,90,56,21,30.52,29.93,11,2,16,0.00
2013-4-23,61,41,25,32,26,20,87,60,24,30.21,29.85,13,2,16,0.00
2013-4-24,65,46,26,35,29,22,90,57,21,30.19,29.61,12,2,29,0.00
2013-4-25,71,51,30,42,33,26,89,57,21,29.79,29.43,8,2,11,0.00
2013-4-26,76,56,35,46,39,31,95,60,20,29.90,29.66,14,3,20,0.00
2013-4-27,69,55,43,43,37,29,78,54,23,29.95,29.75,21,4,28,0.00
2013-4-28,63,49,32,42,32,26,94,58,25,30.07,29.73,19,5,26,0.01
2013-4-29,54,47,34,37,23,10,72,42,22,29.76,29.42,21,6,27,0.05
2013-4-30,53,38,24,30,22,14,85,55,22,30.13,29.68,21,2,24,0.01
2013-5-1,61,42,21,29,22,14,87,53,20,30.42,30.08,11,2,32,0.01
2013-5-2,37,34,34,24,24,24,68,68,66,30.33,30.29,2,0,4,0.00
2013-5-3,73,53,34,43,34,24,74,51,23,30.33,29.71,18,2,23,0.06
2013-5-4,75,58,40,43,35,24,89,50,18,30.22,29.85,13,3,21,0.00
2013-5-5,81,58,34,40,33,24,89,49,13,30.08,29.67,11,2,14,0.00
2013-5-6,84,60,35,50,39,31,91,53,17,29.91,29.25,9,2,17,0.00
2013-5-7,86,63,39,53,43,37,95,56,22,29.63,29.21,9,2,11,0.00
2013-5-8,87,65,42,56,47,40,93,59,24,29.72,29.33,7,1,11,0.00
2013-5-9,88,65,43,52,44,32,97,56,14,29.82,29.35,8,1,12,0.04
2013-5-10,87,65,42,52,45,35,94,56,17,29.91,29.47,11,2,13,0.00
2013-5-11,86,66,49,58,48,42,85,58,23,29.77,29.51,11,1,16,0.00
2013-5-12,78,63,50,57,51,46,89,67,39,29.69,29.56,14,2,21,0.00
2013-5-13,65,57,44,54,49,39,97,76,56,29.80,29.55,22,4,32,0.26
2013-5-14,64,49,35,40,36,31,98,64,32,30.00,29.69,10,2,13,0.00
2013-5-15,68,51,32,45,36,28,99,64,25,29.95,29.53,7,1,10,0.02
2013-5-16,65,58,48,50,46,43,96,67,48,29.74,29.55,8,2,11,0.05
2013-5-17,70,60,41,51,46,41,99,63,37,29.71,29.40,11,2,21,0.02
2013-5-18,62,54,50,51,47,44,98,79,54,30.01,29.69,12,3,15,0.13
2013-5-19,69,56,46,52,48,44,97,77,43,30.17,29.99,12,2,17,0.01
2013-5-20,72,56,40,54,46,40,99,73,38,30.22,29.52,13,2,17,0.06
2013-5-21,75,52,40,55,45,40,99,80,38,29.54,29.11,20,2,32,0.43
2013-5-22,48,43,36,42,40,35,99,89,71,29.87,29.49,11,2,17,0.18
2013-5-23,60,46,32,43,36,30,99,72,38,29.97,29.62,8,2,11,0.02
2013-5-24,59,46,30,44,38,29,99,75,52,29.84,29.59,14,3,21,0.00
2013-5-25,61,47,33,50,41,31,99,79,52,29.89,29.73,9,1,14,0.02
2013-5-26,71,54,33,48,40,32,99,66,31,29.90,29.58,9,1,11,0.00
2013-5-27,66,56,49,50,47,40,94,73,41,29.72,29.51,13,2,16,0.04
2013-5-28,65,56,49,52,48,45,99,78,55,29.60,29.45,17,2,20,0.04
2013-5-29,66,54,45,51,47,43,97,80,46,29.57,29.28,13,2,21,0.06
2013-5-30,62,52,46,48,45,42,93,77,51,29.86,29.55,12,3,15,0.04
2013-5-31,68,54,38,47,42,37,99,69,33,30.03,29.82,13,2,34,0.01
2013-6-1,71,54,36,48,42,35,99,68,31,30.06,29.69,11,1,34,0.00
2013-6-2,64,54,44,52,47,40,95,81,55,29.81,29.67,10,2,14,0.28
2013-6-3,73,55,41,51,46,40,99,77,38,29.85,29.57,14,3,19,0.01
2013-6-4,78,60,40,53,45,39,99,65,28,29.97,29.55,8,2,10,0.01
2013-6-5,82,64,43,55,49,41,97,63,27,29.81,29.37,14,2,17,0.00
2013-6-6,85,68,50,56,50,44,93,60,24,29.68,29.28,9,1,24,0.13
2013-6-7,84,66,51,54,47,35,91,55,21,29.54,29.24,14,2,24,0.04
2013-6-8,81,62,40,48,41,35,85,52,21,29.80,29.44,11,3,15,0.00
2013-6-9,78,60,41,48,40,24,95,54,18,29.74,29.49,9,2,13,0.00
2013-6-10,78,58,36,47,38,29,92,54,19,29.78,29.27,9,2,14,0.09
2013-6-11,73,57,38,49,42,34,96,60,26,29.60,29.36,17,4,21,0.00
2013-6-12,71,56,38,44,38,31,88,56,25,29.82,29.54,16,2,17,0.02
2013-6-13,68,53,35,46,41,32,97,66,39,29.86,29.63,13,2,19,0.00
2013-6-14,59,59,59,45,45,45,60,60,60,29.84,29.84,2,2,6,0.00
2013-6-15,59,59,59,45,45,45,60,60,60,29.84,29.84,2,2,6,0.00
2013-6-16,59,59,59,45,45,45,60,60,60,29.84,29.84,2,2,6,0.00
2013-6-17,59,59,59,45,45,45,60,60,60,29.84,29.84,2,2,6,0.00
2013-6-18,59,59,59,45,45,45,60,60,60,29.84,29.84,2,2,6,0.00
2013-6-19,59,58,54,55,49,45,97,75,60,29.98,29.84,9,2,13,0.38
2013-6-20,54,52,50,53,52,50,98,97,95,30.02,29.87,9,2,11,0.45
2013-6-21,65,59,50,52,49,46,93,72,55,29.90,29.77,6,1,8,0.24
2013-6-22,70,56,44,56,50,43,99,80,51,29.91,29.60,8,1,10,0.00
2013-6-23,76,62,45,58,52,45,99,73,41,29.73,29.17,10,2,18,0.00
2013-6-24,69,60,55,60,57,53,99,89,67,29.44,29.22,12,0,18,0.53
2013-6-25,69,60,53,58,54,51,99,83,57,29.61,29.42,15,0,20,0.08
2013-6-26,74,62,51,57,53,50,98,74,49,29.77,29.55,10,1,17,0.00
2013-6-27,76,62,48,60,55,48,99,79,45,29.98,29.72,7,1,9,0.00
2013-6-28,88,70,49,65,56,49,99,68,32,30.04,29.46,4,0,8,0.00
2013-6-29,84,67,55,67,61,54,98,82,53,29.77,29.48,11,1,20,0.05
2013-6-30,93,73,54,66,59,51,99,67,25,29.75,29.31,4,0,15,0.01
2013-7-1,99,78,56,71,62,54,96,64,28,29.66,29.23,9,1,10,0.00
2013-7-2,98,79,59,71,64,58,96,65,29,29.55,29.14,9,1,12,0.00
2013-7-3,91,74,58,62,55,37,94,59,15,29.52,29.18,10,2,16,0.00
2013-7-4,86,68,49,58,51,46,91,58,27,29.45,29.17,12,3,20,0.00
2013-7-5,81,66,48,56,51,46,92,64,34,29.56,29.21,16,3,21,0.00
2013-7-6,84,68,53,57,50,40,92,60,24,29.53,29.27,13,2,15,0.00
2013-7-7,88,69,47,59,48,44,90,54,23,29.53,29.20,11,2,18,0.00
2013-7-8,80,68,54,58,52,46,82,59,32,29.58,29.32,19,5,44,0.26
2013-7-9,88,68,46,59,52,44,98,62,24,29.87,29.38,10,2,30,0.00
2013-7-10,79,69,49,57,54,47,96,63,47,29.67,29.42,5,2,7,0.00
2013-7-11,79,79,79,57,57,57,48,48,48,29.44,29.44,4,4,6,0.00
2013-7-12,79,79,79,57,57,57,48,48,48,29.44,29.44,4,4,6,0.00
2013-7-13,79,79,79,57,57,57,48,48,48,29.44,29.44,4,4,6,0.00
2013-7-14,91,80,59,57,54,46,72,43,23,29.90,29.44,11,3,16,0.00
2013-7-15,88,72,52,54,48,39,83,48,21,30.01,29.69,13,4,19,0.00
2013-7-16,96,76,54,63,55,48,81,52,24,30.06,29.56,10,4,16,0.00
2013-7-17,95,79,63,67,60,56,84,55,29,29.89,29.60,11,3,20,0.00
2013-7-18,96,80,61,64,60,53,89,57,25,30.03,29.65,9,3,11,0.00
2013-7-19,99,79,57,66,59,52,94,57,24,29.91,29.55,8,1,10,0.00
2013-7-20,69,58,54,57,55,52,94,90,73,29.78,29.60,4,0,4,0.00
2013-7-21,57,57,57,55,55,55,92,92,92,29.78,29.78,0,0,2,0.00
2013-7-22,57,57,57,55,55,55,92,92,92,29.78,29.78,0,0,2,0.00
2013-7-23,57,57,57,55,55,55,92,92,92,29.78,29.78,0,0,2,0.00
2013-7-24,57,57,57,55,55,55,92,92,92,29.78,29.78,0,0,2,0.00
2013-7-25,95,71,57,56,53,36,92,62,13,29.88,29.70,11,1,17,0.00
2013-7-26,95,71,46,53,44,34,87,47,12,30.17,29.67,11,2,14,0.00
2013-7-27,88,68,45,50,42,33,82,45,14,29.97,29.63,10,2,15,0.00
2013-7-28,61,54,44,44,42,38,84,66,59,29.90,29.68,3,1,8,0.00
2013-7-29,56,56,56,43,43,43,62,62,62,29.87,29.87,1,1,4,0.00
2013-7-30,87,62,56,53,45,42,66,55,21,30.02,29.87,6,1,8,0.00
2013-7-31,89,69,47,53,47,42,85,51,21,30.35,29.86,17,2,22,0.00
2013-8-1,75,63,51,60,54,46,97,72,46,30.10,29.90,9,2,13,0.12
2013-8-2,65,60,58,60,58,57,99,95,81,30.22,29.98,8,1,11,0.24
2013-8-3,78,66,57,60,57,54,99,76,45,31.56,30.01,8,1,11,0.00
2013-8-4,84,66,50,60,55,49,99,72,38,30.22,29.90,18,2,24,0.00
2013-8-5,87,69,52,60,55,50,97,66,30,30.23,29.78,11,2,17,0.00
2013-8-6,89,73,49,59,53,49,98,57,28,30.20,29.80,9,2,12,0.00
2013-8-7,92,82,58,60,53,49,86,41,24,29.92,29.47,6,2,12,0.00
2013-8-8,92,71,49,57,51,38,95,57,15,29.97,29.55,11,1,14,0.00
2013-8-9,72,72,72,56,56,56,56,56,56,29.56,29.56,1,1,3,0.00
2013-8-10,93,75,63,57,55,46,68,50,23,29.98,29.56,10,1,13,0.01
2013-8-11,89,74,62,61,56,48,91,58,27,30.17,29.87,16,2,19,0.07
2013-8-12,90,72,54,60,56,51,97,62,27,30.28,29.88,10,2,31,0.00
2013-8-13,90,70,51,59,53,45,95,60,22,30.36,29.96,11,2,14,0.00
2013-8-14,92,74,49,59,52,47,94,53,25,30.35,29.96,7,3,13,0.00
2013-8-15,91,91,91,52,52,52,27,27,27,29.96,29.96,5,5,8,0.00
2013-8-17,85,76,57,58,51,46,76,44,27,29.90,29.77,13,3,16,0.00
2013-8-18,86,66,46,54,48,43,95,58,23,30.11,29.84,12,2,36,0.00
2013-8-19,79,69,48,53,50,44,90,55,38,30.13,29.88,7,1,11,0.00
2013-8-20,84,77,53,52,48,38,64,38,20,29.98,29.82,8,2,10,0.00
2013-8-21,87,65,44,51,41,33,81,49,16,30.27,29.80,7,2,10,0.00
2013-8-22,88,65,42,59,44,35,84,51,16,30.16,29.72,8,1,10,0.00
2013-8-23,82,67,57,58,53,44,80,62,41,29.94,29.70,12,1,15,0.01
2013-8-24,83,64,47,57,51,47,99,68,32,31.31,29.70,8,1,22,0.00
2013-8-25,84,68,56,57,53,49,84,61,31,30.02,29.69,8,2,11,0.00
2013-8-26,86,75,58,64,59,54,86,61,39,29.91,29.57,9,2,12,1.00
2013-8-27,90,67,51,61,55,50,99,73,30,29.93,29.52,10,1,15,0.00
2013-8-28,92,77,60,63,59,56,86,57,33,29.91,29.65,9,2,11,0.00
2013-8-29,89,71,55,65,59,54,96,69,35,29.89,29.64,17,2,21,0.00
2013-8-30,88,72,57,62,56,49,96,62,28,30.02,29.72,11,2,17,0.00
2013-8-31,92,69,48,58,51,46,98,60,23,30.06,29.69,8,1,11,0.00
2013-9-1,101,73,48,58,51,42,91,54,14,29.91,29.51,11,2,16,0.00
2013-9-2,92,72,54,65,58,51,89,65,35,29.84,29.59,8,1,14,0.00
2013-9-3,93,75,60,67,63,58,95,69,36,29.88,29.57,12,2,16,0.00
2013-9-4,95,77,59,67,63,58,97,67,34,29.87,29.34,10,2,15,0.00
2013-9-5,88,76,68,70,67,61,97,74,47,29.76,27.89,10,1,14,0.04
2013-9-6,75,68,63,69,64,61,98,86,64,29.89,29.47,11,2,15,0.31
2013-9-7,69,64,56,65,62,56,99,93,79,30.00,29.87,4,0,24,0.11
2013-9-8,82,66,54,64,59,53,99,81,49,30.06,29.79,4,0,5,0.01
2013-9-9,62,56,54,59,56,53,99,98,95,29.98,29.82,2,0,2,0.00
2013-9-10,88,68,54,61,55,49,98,69,28,30.03,29.54,9,1,11,0.01
2013-9-11,92,69,48,59,52,46,95,61,26,30.02,29.54,9,2,12,0.04
2013-9-12,94,71,50,61,53,48,93,61,25,29.94,29.33,8,2,11,0.00
2013-9-13,95,70,50,60,53,49,97,63,23,29.76,29.31,8,1,11,0.00
2013-9-14,92,70,51,63,53,48,93,60,26,29.82,29.50,6,1,8,0.00
2013-9-15,86,69,51,60,53,47,89,62,33,29.81,29.47,21,2,27,0.06
2013-9-16,72,63,54,61,58,52,99,84,62,29.80,29.58,14,2,20,0.01
2013-9-17,73,58,46,58,52,46,99,83,42,29.91,29.42,12,2,29,0.41
2013-9-18,70,56,43,54,50,43,98,82,43,29.91,29.55,8,1,13,0.01
2013-9-19,72,52,38,51,44,38,99,77,34,30.20,29.80,8,1,13,0.02
2013-9-20,80,56,37,53,44,36,99,70,25,29.95,29.36,6,1,11,0.01
2013-9-21,70,57,47,52,48,44,91,73,46,29.62,29.39,8,2,12,0.00
2013-9-22,63,52,41,52,46,41,98,81,55,29.74,29.59,16,3,25,0.02
2013-9-23,61,54,47,48,47,45,95,76,57,29.91,29.70,11,3,15,0.01
2013-9-24,63,52,46,49,46,42,92,80,51,29.86,29.59,9,1,36,0.04
2013-9-25,56,50,39,48,46,39,99,84,70,29.90,29.65,8,1,23,0.01
2013-9-26,67,54,46,47,42,34,88,68,31,30.01,29.82,8,0,9,0.01
2013-9-27,55,46,32,46,40,31,99,80,55,30.09,29.85,12,2,42,0.04
2013-9-28,58,54,50,56,51,45,99,91,81,30.06,29.63,6,0,14,1.22
2013-9-29,58,53,49,55,47,44,96,81,66,29.89,29.62,0,0,0,0.22
2013-9-30,60,51,45,51,44,38,99,77,49,29.93,29.61,0,0,0,0.21
2013-10-1,57,47,36,44,40,33,98,79,55,30.14,29.85,0,0,1,0.04
2013-10-2,52,43,35,42,39,33,99,86,64,30.32,27.90,0,0,0,0.02
2013-10-3,64,47,34,42,37,31,95,74,30,30.43,30.14,3,0,5,0.02
2013-10-4,64,43,28,42,34,26,99,76,33,30.63,30.36,4,0,11,0.01
2013-10-5,66,46,33,43,36,31,98,73,35,30.75,30.48,2,0,6,0.00
2013-10-6,71,46,29,46,37,29,99,77,32,30.60,30.19,2,0,35,0.00
2013-10-7,66,49,34,46,38,33,99,70,34,30.25,29.89,9,1,37,0.00
2013-10-8,55,47,36,44,40,34,96,77,58,30.14,29.81,8,2,14,0.05
2013-10-9,62,44,32,45,37,31,96,79,42,30.22,29.71,3,0,4,0.11
2013-10-10,46,46,46,41,41,41,84,84,84,29.72,29.72,0,0,0,0.00
2013-10-11,46,46,46,41,41,41,84,84,84,29.72,29.72,0,0,0,0.00
2013-10-12,46,46,46,41,41,41,84,84,84,29.72,29.72,0,0,0,0.00
2013-10-13,46,46,46,41,41,41,84,84,84,29.72,29.72,0,0,0,0.00
2013-10-14,62,47,31,41,36,27,89,68,30,30.08,29.72,4,0,7,0.12
2013-10-15,62,40,24,39,31,21,95,73,37,30.21,29.80,4,0,13,0.12
2013-10-16,65,52,33,44,37,31,97,62,38,29.86,29.61,5,0,8,0.00
2013-10-17,65,58,32,39,37,30,89,49,36,30.04,29.61,8,0,10,0.15
2013-10-18,63,40,28,43,34,25,99,81,46,30.21,29.89,4,0,8,0.01
2013-10-19,63,41,29,44,36,28,99,84,46,30.11,29.95,3,0,5,0.00
2013-10-20,68,44,30,46,38,29,99,83,45,30.15,29.99,4,0,14,0.00
2013-10-21,69,45,32,48,39,31,99,84,44,30.16,29.81,2,0,7,0.02
2013-10-22,68,44,35,50,40,33,99,88,49,30.09,29.80,2,0,4,0.01
2013-10-23,65,44,34,50,40,33,99,90,57,30.04,29.76,2,0,4,0.01
2013-10-24,63,43,34,49,40,34,99,90,58,30.01,29.77,3,0,8,0.01
2013-10-25,57,41,34,49,39,33,99,93,72,30.29,29.95,0,0,7,0.01
2013-10-26,34,34,34,33,33,33,94,94,94,30.29,30.29,0,0,0,0.00
2013-10-27,34,34,34,33,33,33,94,94,94,30.29,30.29,0,0,0,0.00
2013-10-28,61,40,29,33,24,16,94,61,25,30.29,29.77,12,1,15,0.07
2013-10-29,54,34,21,27,21,15,80,60,29,30.09,29.75,4,1,8,0.02
2013-10-30,50,32,20,30,23,16,83,70,43,30.14,29.83,4,0,4,0.00
2013-10-31,57,40,29,38,31,25,86,71,48,30.15,29.83,4,0,4,0.00
2013-11-1,51,37,26,40,32,22,97,83,65,30.34,30.06,3,0,9,0.01
2013-11-2,50,42,36,47,38,33,97,86,65,30.08,29.73,0,0,0,0.38
2013-11-3,46,38,29,36,31,25,88,76,48,30.30,29.94,0,0,0,0.00
2013-11-4,42,33,25,32,27,21,89,79,61,30.38,29.90,0,0,0,0.00
2013-11-5,36,32,27,31,28,22,90,85,81,30.28,29.52,0,0,0,0.11
2013-11-6,39,37,34,34,33,31,91,84,79,30.14,29.79,0,0,0,0.01
2013-11-7,42,39,35,39,34,32,95,85,79,29.81,29.18,0,0,0,0.47
2013-11-8,51,42,32,41,38,29,94,85,66,29.89,29.36,0,0,0,0.01
2013-11-9,45,39,33,38,35,30,96,86,73,30.07,29.89,0,0,0,0.00
2013-11-10,41,41,41,37,37,37,88,88,88,30.00,30.00,0,0,0,0.00
2013-11-11,41,41,41,37,37,37,88,88,88,30.00,30.00,0,0,0,0.00
2013-11-12,41,41,41,37,37,37,88,88,88,30.00,30.00,0,0,0,0.00
2013-11-13,51,44,41,43,40,37,91,83,71,30.00,29.60,0,0,0,0.18
2013-11-14,52,42,34,43,38,30,92,84,65,30.06,29.75,0,0,0,0.00
2013-11-15,41,39,35,37,35,31,91,85,77,30.06,29.42,0,0,0,0.58
2013-11-16,48,40,34,40,34,27,90,82,46,29.96,29.43,0,0,0,0.01
2013-11-17,45,36,28,40,32,24,92,85,69,30.29,29.85,0,0,0,0.05
2013-11-18,46,45,44,43,40,38,88,81,74,30.13,29.58,0,0,0,0.18
2013-11-19,57,49,38,46,36,12,87,64,33,29.85,29.34,0,0,0,0.17
2013-11-20,38,30,23,14,4,-4,49,34,21,30.60,29.85,14,2,20,0.01
2013-11-21,42,23,23,40,7,7,91,50,49,30.91,29.91,0,0,2,0.00
2013-11-22,37,26,13,17,13,6,73,56,33,30.19,29.58,3,0,4,0.01
2013-11-23,39,24,14,21,14,7,77,66,44,29.99,29.76,0,0,2,0.22
2013-11-24,41,25,16,26,17,9,79,70,51,29.95,27.58,1,0,2,0.00
2013-11-25,41,28,20,28,20,15,80,72,56,30.03,29.26,0,0,2,0.01
2013-11-26,40,27,20,29,21,14,81,75,62,30.31,29.05,3,0,4,0.07
2013-11-27,43,28,18,30,21,12,82,75,59,29.49,29.06,0,0,2,0.12
2013-11-28,37,30,18,28,22,11,84,74,65,29.73,29.49,0,0,0,0.00
2013-11-29,37,34,28,28,27,22,86,78,69,29.93,29.69,0,0,0,0.00
2013-11-30,36,33,29,31,29,25,87,85,80,29.92,29.74,0,0,0,0.06
2013-12-1,41,36,33,39,33,30,94,88,85,29.74,29.14,0,0,0,0.15
2013-12-2,45,36,31,39,28,16,93,71,45,29.20,28.61,0,0,0,0.00
2013-12-3,34,28,22,17,8,2,55,43,26,29.63,29.14,0,0,2,0.00
2013-12-4,28,20,10,14,9,1,71,62,51,30.24,29.34,4,0,4,0.24
2013-12-5,24,17,9,12,6,-1,69,62,54,30.29,29.77,2,0,4,0.04
2013-12-6,22,11,3,3,-8,-19,65,45,24,30.38,29.88,15,3,18,0.01
2013-12-7,19,8,0,-6,-11,-16,58,42,25,29.93,29.80,9,2,12,0.00
2013-12-8,18,8,-1,1,-5,-13,63,54,39,30.04,29.91,5,1,7,0.00
2013-12-9,20,17,12,3,0,-2,59,47,41,30.03,29.91,8,2,12,0.02
2013-12-10,27,15,8,8,3,-2,71,58,42,30.08,29.88,4,1,8,0.00
2013-12-11,25,20,11,17,11,3,78,68,61,30.18,29.94,9,1,13,0.00
2013-12-12,27,22,17,21,16,10,80,75,71,30.23,29.66,0,0,2,0.25
2013-12-13,37,28,23,27,22,18,81,77,65,30.24,29.80,0,0,0,0.19
2013-12-14,29,29,29,24,24,24,80,80,80,30.24,30.24,0,0,0,0.00
2013-12-15,39,32,29,34,27,1,85,81,78,30.24,29.88,0,0,0,0.01
2013-12-16,37,34,32,32,30,28,86,84,81,30.06,29.48,0,0,0,0.01
2013-12-17,33,31,29,30,28,26,89,88,85,29.66,29.14,0,0,0,0.01
2013-12-18,66,32,29,31,28,14,96,85,52,29.97,28.98,14,1,19,0.01
2013-12-19,32,25,18,18,15,12,83,67,46,30.26,29.96,12,2,18,0.00
2013-12-20,24,22,17,22,17,13,93,82,72,30.16,29.77,1,0,2,0.00
2013-12-21,31,24,22,22,21,20,91,86,69,30.19,30.13,0,0,1,0.00
2013-12-22,32,27,24,28,25,21,94,89,82,30.36,30.19,1,0,3,0.00
2013-12-23,37,31,27,36,30,26,98,96,92,30.36,30.02,4,0,6,0.07
2013-12-24,33,28,25,32,27,24,98,97,94,30.63,30.36,1,0,2,0.00
2013-12-25,33,26,16,30,24,15,98,95,85,30.63,30.48,1,0,1,0.00
2013-12-26,32,26,24,30,26,23,99,97,91,30.50,30.38,0,0,2,0.00
2013-12-27,28,24,20,27,23,19,99,97,94,30.39,30.08,3,0,4,0.00
2013-12-28,29,28,26,28,27,25,98,96,93,30.53,30.28,3,0,6,0.00
2013-12-29,33,29,25,30,27,24,98,94,85,30.52,30.29,3,0,6,0.00
2013-12-30,31,27,22,30,26,21,99,97,91,30.38,30.16,1,0,3,0.00
2013-12-31,38,32,31,33,31,30,97,93,81,30.39,30.14,1,0,2,0.00
2014-1-1,32,30,27,30,28,26,97,94,90,30.50,30.39,4,1,6,0.00
2014-1-2,37,33,30,34,32,29,97,94,91,30.40,29.75,2,0,5,0.00